Location: Unspecified
(0.0000°N, 0.0000°E)
Time: 22:19:36
(UTC+00:00)

NOSS 2-1 (D) - Visible Passes

Search period start: 30 May 2024 00:00
Search period end: 09 June 2024 00:00
Orbit: 387 x 1745 km, 63.3° (Epoch: 30 May)

Date Brightness Start Highest point End Pass type
(mag) Time Alt. Az. Time Alt. Az. Time Alt. Az.
04 Jun 6.8 20:29:42 10° NNE 20:29:42 10° NNE 20:29:42 10° NNE visible
05 Jun 6.8 21:21:06 10° NNW 21:22:08 16° NNW 21:22:08 16° NNW visible
06 Jun 6.1 20:25:29 10° N 20:28:02 25° NNE 20:28:02 25° NNE visible
07 Jun 6.4 19:31:33 10° NE 19:34:00 15° ENE 19:34:00 15° ENE visible
07 Jun 6.4 21:18:07 10° NW 21:20:37 26° NW 21:20:37 26° NW visible
08 Jun 5.2 20:21:46 10° NNW 20:26:40 54° NNE 20:26:40 54° NNE visible
